ヘリン-ローマン-クロケット彗星

111P/Helin-Roman-Crockett (2004)

English version
Home page
Updated on August 23, 2003

---------------------------------------------------------------------

・ プロフィール

・ 軌道要素

Epoch 2004 Dec. 21.0 TT = JDT 2453360.5  
T 2004 Dec. 27.15425 TT                                 Muraoka 
q   3.4733844            (2000.0)            P               Q
n   0.12137307     Peri.   10.56489     -0.21597982     -0.97360707
a   4.0400600      Node    91.93746     +0.89035817     -0.22739606
e   0.1402642      Incl.    4.23297     +0.40076806     -0.01950139
P   8.12
From 113 observations 1989-1998, mean residual 0".86.

・ 星図

・ 光度変化

        m1 = 7.0 + 5 logΔ + 20.0 log r

---------------------------------------------------------------------

軌道要素は村岡健治氏の計算によるものです。
星図は StellaNavigator Ver.2.0 for Windows (アストロアーツ 編著 / アスキー出版局刊) で作成したものです。
光度グラフはComet for Windowsで作成したものです。

---------------------------------------------------------------------

Copyright(C) Seiichi Yoshida (comet@aerith.net). All rights reserved.